GW1377 Weather Reports


time (UTC)temp
F
wind
direction
speed
knots
gust
knots
rain 1hr
in
rain 24hr
in
rain mn
in
humidity
%
barometer
mb
20260508005041 43 257 2.6 7.8 0.00 0.47 0.02 58 1004.3
20260508004554 43 249 3.5 7.8 0.00 0.47 0.02 58 1004.2
20260508004039 43 250 4.3 8.7 0.00 0.47 0.02 57 1004.0
20260508003540 43 273 4.3 10.4 0.00 0.47 0.02 57 1003.9
20260508003049 43 269 5.2 10.4 0.00 0.47 0.02 57 1003.7
20260508002542 43 272 3.5 7.8 0.00 0.47 0.02 56 1003.8
20260508002040 44 257 4.3 10.4 0.00 0.47 0.02 56 1003.8
20260508001550 44 259 4.3 13.0 0.00 0.47 0.02 55 1003.7
20260508001041 44 252 4.3 13.0 0.00 0.47 0.02 55 1003.7
20260508000542 44 250 7.0 13.9 0.00 0.47 0.02 54 1003.5
20260508000053 44 224 7.0 16.5 0.00 0.47 0.02 53 1003.7
20260507235541 45 267 9.6 16.5 0.00 0.55 0.02 53 1003.6
20260507235041 45 264 6.1 12.2 0.00 0.55 0.02 53 1003.6
20260507234550 45 236 7.0 12.2 0.00 0.55 0.02 53 1003.5
20260507234041 45 254 4.3 13.9 0.00 0.55 0.02 52 1003.5
20260507233545 45 268 6.1 13.9 0.00 0.55 0.02 51 1003.3
20260507233052 46 219 7.0 13.9 0.00 0.55 0.02 51 1003.2
20260507232541 46 233 6.1 16.5 0.00 0.55 0.02 50 1003.1
20260507232040 47 214 9.6 16.5 0.00 0.55 0.02 50 1003.1
20260507231555 47 271 7.8 17.4 0.00 0.55 0.02 50 1003.1
20260507231041 47 224 8.7 17.4 0.00 0.55 0.02 50 1003.0
20260507230542 47 253 6.1 12.2 0.00 0.55 0.02 51 1003.0
20260507230054 47 259 7.0 15.6 0.00 0.55 0.02 51 1003.1
20260507225540 47 278 6.1 16.5 0.00 0.63 0.02 50 1003.0
20260507225044 48 270 10.4 18.2 0.00 0.63 0.02 50 1002.9
20260507224553 48 240 9.6 18.2 0.00 0.63 0.02 49 1002.8
20260507224045 48 226 8.7 17.4 0.00 0.63 0.02 48 1002.9
20260507223540 48 274 7.0 20.0 0.00 0.63 0.02 49 1002.8
20260507223053 48 269 8.7 20.0 0.00 0.63 0.02 50 1002.9
20260507222539 49 240 10.4 20.0 0.00 0.63 0.02 50 1002.7
20260507222040 49 298 10.4 16.5 0.00 0.63 0.02 50 1002.6
20260507221555 49 288 10.4 16.5 0.00 0.63 0.02 51 1002.6
20260507221041 49 279 6.1 13.0 0.00 0.63 0.02 51 1002.6
20260507220541 50 254 5.2 13.0 0.00 0.63 0.02 51 1002.6
20260507220056 49 262 6.1 12.2 0.00 0.63 0.02 52 1002.6
20260507215540 50 276 7.0 13.9 0.00 0.66 0.02 50 1002.5
20260507215039 49 281 7.8 13.9 0.00 0.66 0.02 51 1002.5
20260507214610 49 274 7.8 13.9 0.00 0.66 0.02 51 1002.5
20260507214039 49 241 6.1 14.8 0.00 0.66 0.02 52 1002.5
20260507213538 50 264 6.1 14.8 0.00 0.66 0.02 51 1002.5
20260507213103 51 257 5.2 13.9 0.00 0.66 0.02 50 1002.4
20260507212538 51 228 7.0 13.9 0.00 0.66 0.02 50 1002.3
20260507212040 51 271 4.3 13.0 0.00 0.66 0.02 50 1002.1
20260507211606 51 224 7.8 14.8 0.00 0.66 0.02 49 1002.3
20260507211037 52 250 7.8 14.8 0.00 0.66 0.02 49 1002.3
20260507210539 52 241 7.8 14.8 0.00 0.66 0.02 48 1002.1
20260507210054 51 278 6.1 19.1 0.00 0.66 0.02 51 1002.1
20260507205538 51 266 10.4 19.1 0.00 0.86 0.02 50 1002.0
20260507205039 51 240 7.0 18.2 0.00 0.86 0.02 53 1001.9
20260507204554 51 263 7.8 18.2 0.00 0.86 0.02 51 1001.8
20260507204042 50 283 8.7 20.9 0.00 0.86 0.02 53 1001.8
20260507203539 49 223 11.3 20.9 0.00 0.86 0.02 52 1001.8
20260507203053 51 278 12.2 19.1 0.00 0.86 0.02 53 1001.6
20260507202542 50 280 10.4 17.4 0.00 0.86 0.02 54 1001.5
20260507202040 50 257 8.7 15.6 0.00 0.86 0.02 54 1001.4
20260507201547 51 223 6.1 15.6 0.00 0.86 0.02 52 1001.4
20260507201038 51 275 7.8 13.9 0.00 0.86 0.02 55 1001.3
20260507200537 52 255 7.0 16.5 0.00 0.86 0.02 53 1001.3
20260507200047 53 268 7.0 16.5 0.00 0.86 0.02 55 1001.2
20260507195543 53 316 9.6 15.6 0.00 0.96 0.02 54 1001.2
20260507195038 53 288 7.0 20.0 0.00 0.96 0.02 52 1001.1
20260507194616 53 291 9.6 20.0 0.00 0.96 0.02 51 1001.1
20260507194038 53 249 8.7 15.6 0.00 0.96 0.02 53 1001.1
20260507193538 53 273 7.0 12.2 0.00 0.96 0.02 52 1001.0
20260507193051 53 243 7.0 12.2 0.00 0.96 0.02 54 1001.0
20260507192539 53 293 6.1 12.2 0.00 0.96 0.02 53 1001.0
20260507192038 53 266 6.1 13.9 0.00 0.96 0.02 52 1001.0
20260507191551 52 249 7.0 13.9 0.00 0.96 0.02 56 1001.0
20260507191038 53 246 7.8 13.0 0.00 0.96 0.02 52 1001.0
20260507190538 54 275 6.1 13.0 0.00 0.96 0.02 53 1001.0
20260507190047 55 262 7.8 14.8 0.00 0.96 0.02 53 1001.0
20260507185538 55 302 8.7 14.8 0.00 1.10 0.02 52 1000.9
20260507185037 55 284 7.8 13.0 0.00 1.10 0.02 51 1001.0
20260507184604 55 259 5.2 18.2 0.00 1.10 0.02 48 1001.0
20260507184039 54 216 5.2 18.2 0.00 1.10 0.02 55 1001.0
20260507183540 54 203 7.0 14.8 0.00 1.10 0.02 51 1001.1
20260507183052 54 228 9.6 14.8 0.00 1.10 0.02 51 1001.0
20260507182540 54 255 7.0 14.8 0.00 1.10 0.02 55 1001.2
20260507182039 54 237 7.0 14.8 0.00 1.10 0.02 54 1001.2
20260507181553 54 271 6.1 13.0 0.00 1.10 0.02 56 1001.3
20260507181038 53 243 6.1 16.5 0.00 1.10 0.02 60 1001.4
20260507180539 52 269 10.4 16.5 0.00 1.10 0.02 65 1001.4
20260507180057 52 250 6.1 13.0 0.00 1.10 0.02 65 1001.4
20260507175538 52 233 7.0 13.9 0.00 1.13 0.02 66 1001.4
20260507175038 52 219 7.0 16.5 0.00 1.13 0.02 66 1001.4
20260507174550 52 245 9.6 16.5 0.00 1.13 0.02 64 1001.4
20260507174039 53 227 9.6 14.8 0.00 1.13 0.02 66 1001.4
20260507173538 52 255 7.0 15.6 0.00 1.13 0.02 70 1001.4
20260507173050 52 272 7.0 15.6 0.00 1.13 0.02 68 1001.5
20260507172539 52 224 8.7 15.6 0.00 1.13 0.02 67 1001.6
20260507172038 53 259 7.0 13.9 0.00 1.13 0.02 68 1001.7
20260507171556 52 255 8.7 13.9 0.00 1.13 0.02 68 1001.7
20260507171039 52 217 8.7 13.0 0.00 1.13 0.02 67 1001.9
20260507170541 53 249 7.8 13.0 0.00 1.13 0.02 71 1002.0
20260507170048 53 283 8.7 13.0 0.00 1.13 0.02 70 1002.1
20260507165538 52 271 8.7 12.2 0.00 1.15 0.02 71 1002.2
20260507165038 52 261 7.8 12.2 0.00 1.15 0.02 70 1002.2
20260507164548 52 233 6.1 12.2 0.00 1.15 0.02 70 1002.2
20260507164038 51 232 7.8 13.0 0.00 1.15 0.02 69 1002.2
20260507163540 52 228 7.8 14.8 0.00 1.15 0.02 68 1002.3
20260507163048 52 243 6.1 14.8 0.00 1.15 0.02 68 1002.3
20260507162539 52 273 8.7 14.8 0.00 1.15 0.02 65 1002.2
20260507162038 54 236 7.8 13.9 0.00 1.15 0.02 64 1002.2
20260507161550 54 239 7.8 13.9 0.00 1.15 0.02 66 1002.1
20260507161039 53 246 5.2 11.3 0.00 1.15 0.02 66 1002.0
20260507160540 52 248 6.1 13.0 0.00 1.15 0.02 68 1002.0
20260507160051 52 260 7.0 13.0 0.00 1.15 0.02 68 1002.2
20260507155539 52 245 5.2 11.3 0.00 1.16 0.02 67 1002.2
20260507155039 52 264 6.1 12.2 0.00 1.16 0.02 66 1002.4
20260507154554 52 266 6.1 12.2 0.00 1.16 0.02 65 1002.4
20260507154036 52 245 7.0 13.0 0.00 1.16 0.02 66 1002.4
20260507153537 52 235 7.0 15.6 0.00 1.16 0.02 68 1002.4
20260507153052 52 238 9.6 15.6 0.00 1.16 0.02 68 1002.4
20260507152538 52 237 9.6 15.6 0.00 1.16 0.02 68 1002.4
20260507152039 52 205 7.8 15.6 0.00 1.16 0.02 70 1002.4
20260507151544 52 245 9.6 13.0 0.00 1.16 0.02 70 1002.4
20260507151038 52 246 5.2 12.2 0.00 1.16 0.02 71 1002.4
20260507150538 52 271 6.1 12.2 0.00 1.16 0.02 71 1002.4
20260507150052 52 266 4.3 8.7 0.00 1.16 0.02 71 1002.4
20260507145538 51 270 4.3 10.4 0.00 1.16 0.02 71 1002.4
20260507145038 51 235 5.2 10.4 0.00 1.16 0.02 71 1002.5
20260507144548 51 274 4.3 10.4 0.00 1.16 0.02 71 1002.5
20260507144039 51 272 6.1 10.4 0.00 1.16 0.02 71 1002.5
20260507143538 52 255 5.2 9.6 0.00 1.16 0.02 71 1002.6
20260507143051 51 231 5.2 9.6 0.00 1.16 0.02 72 1002.6
20260507142539 51 265 4.3 9.6 0.00 1.16 0.02 73 1002.7
20260507142038 51 238 6.1 9.6 0.00 1.16 0.02 70 1002.7
20260507141546 52 221 4.3 9.6 0.00 1.16 0.02 72 1002.6
20260507141038 52 248 5.2 9.6 0.00 1.16 0.02 71 1002.7
20260507140538 51 252 4.3 9.6 0.00 1.16 0.02 75 1002.8
20260507140047 51 248 4.3 8.7 0.00 1.16 0.02 72 1002.7
20260507135541 51 257 2.6 11.3 0.00 1.16 0.02 74 1002.6
20260507135038 50 264 4.3 11.3 0.00 1.16 0.02 76 1002.6
20260507134544 49 215 7.8 13.9 0.00 1.16 0.02 77 1002.6
20260507134037 49 247 7.8 13.9 0.00 1.16 0.02 75 1002.6
20260507133539 49 239 6.1 13.9 0.00 1.16 0.02 76 1002.7
20260507133051 49 250 7.8 13.9 0.00 1.16 0.02 75 1002.8
20260507132538 49 226 7.0 11.3 0.00 1.16 0.02 74 1002.8
20260507132038 49 224 7.8 12.2 0.00 1.16 0.02 74 1002.7
20260507131608 49 233 7.8 12.2 0.00 1.16 0.02 75 1002.7
20260507131038 49 233 6.1 11.3 0.00 1.16 0.02 76 1002.7
20260507130540 49 196 6.1 11.3 0.00 1.16 0.02 77 1002.6
20260507130046 48 226 5.2 12.2 0.00 1.16 0.02 77 1002.6
20260507125538 48 258 6.1 12.2 0.00 1.16 0.02 76 1002.7
20260507125038 48 213 4.3 9.6 0.00 1.16 0.02 79 1002.8
20260507124547 48 259 5.2 9.6 0.00 1.16 0.02 78 1002.9
20260507124038 47 257 5.2 9.6 0.00 1.16 0.02 79 1002.8
20260507123538 47 248 3.5 12.2 0.00 1.16 0.02 80 1002.9
20260507123047 47 235 5.2 12.2 0.00 1.16 0.02 80 1003.0
20260507122538 47 235 6.1 12.2 0.00 1.16 0.02 79 1003.0
20260507122038 46 233 5.2 12.2 0.00 1.16 0.02 81 1002.9
20260507121549 46 241 6.1 13.9 0.00 1.16 0.02 82 1002.9
20260507121039 46 269 6.1 13.9 0.00 1.16 0.02 82 1003.0
20260507120538 45 238 7.0 13.9 0.00 1.16 0.02 83 1003.0
20260507120047 45 264 7.8 13.0 0.00 1.16 0.02 83 1002.9
20260507115539 45 255 6.1 13.0 0.00 1.16 0.02 84 1003.0
20260507115038 45 282 8.7 13.0 0.00 1.16 0.02 84 1003.1
20260507114547 45 217 7.8 15.6 0.00 1.16 0.02 84 1003.2
20260507114038 45 214 7.0 15.6 0.00 1.16 0.02 84 1003.1
20260507113539 45 221 4.3 10.4 0.00 1.16 0.02 83 1003.1
20260507113048 44 231 5.2 9.6 0.00 1.16 0.02 85 1003.2
20260507112538 44 241 5.2 10.4 0.00 1.16 0.02 84 1003.0
20260507112038 44 257 2.6 13.0 0.00 1.16 0.02 86 1003.0
20260507111550 44 232 4.3 13.0 0.00 1.16 0.02 84 1002.9
20260507111038 43 236 7.0 14.8 0.00 1.16 0.02 85 1002.9
20260507110539 43 231 6.1 14.8 0.00 1.16 0.02 86 1002.9
20260507110051 43 229 7.8 14.8 0.00 1.16 0.02 86 1003.0
20260507105537 42 251 6.1 13.0 0.00 1.16 0.02 86 1003.1
20260507105037 42 252 5.2 12.2 0.00 1.16 0.02 87 1003.0
20260507104547 42 276 6.1 13.9 0.00 1.16 0.02 87 1002.9
20260507104039 42 254 7.0 14.8 0.00 1.16 0.02 87 1002.7
20260507103539 42 226 8.7 14.8 0.00 1.16 0.02 86 1002.6
20260507103046 42 239 10.4 15.6 0.00 1.16 0.02 86 1002.7
20260507102538 42 242 11.3 15.6 0.00 1.16 0.02 87 1002.6
20260507102038 41 238 8.7 15.6 0.00 1.16 0.02 88 1002.6
20260507101552 41 235 10.4 15.6 0.00 1.16 0.02 88 1002.5
20260507101038 41 226 8.7 14.8 0.00 1.16 0.02 88 1002.6
20260507100538 41 245 6.1 12.2 0.00 1.16 0.02 88 1002.6
20260507100050 41 252 2.6 10.4 0.00 1.16 0.02 88 1002.6
20260507095538 41 230 4.3 10.4 0.00 1.16 0.02 88 1002.5
20260507095038 41 247 6.1 11.3 0.00 1.16 0.02 88 1002.4
20260507094550 41 290 7.0 11.3 0.00 1.16 0.02 87 1002.3
20260507094038 41 238 5.2 13.0 0.00 1.16 0.02 88 1002.3
20260507093538 41 224 7.8 13.9 0.00 1.16 0.02 88 1002.6
20260507093053 41 233 8.7 13.9 0.00 1.16 0.02 87 1002.8
20260507092541 41 225 8.7 13.9 0.00 1.16 0.02 88 1002.9
20260507092037 41 224 9.6 13.9 0.00 1.16 0.02 87 1002.6
20260507091548 42 229 7.8 10.4 0.00 1.16 0.02 86 1002.6
20260507091038 42 228 5.2 11.3 0.00 1.16 0.02 85 1002.8
20260507090538 43 243 6.1 11.3 0.00 1.16 0.02 84 1002.9
20260507090048 42 230 3.5 9.6 0.00 1.16 0.02 85 1002.8
20260507085538 42 242 3.5 10.4 0.00 1.16 0.02 85 1002.9
20260507085039 42 266 6.1 10.4 0.00 1.16 0.02 87 1002.6
20260507084551 42 244 6.1 10.4 0.00 1.16 0.02 86 1002.5
20260507084039 41 255 4.3 10.4 0.00 1.16 0.02 87 1002.5
20260507083538 41 318 0.9 7.8 0.00 1.16 0.02 89 1002.6
20260507083045 41 316 0.9 4.3 0.00 1.16 0.02 89 1002.6
20260507082540 41 0 0.9 5.2 0.00 1.16 0.02 90 1002.7
20260507082038 41 232 1.7 5.2 0.00 1.16 0.02 90 1003.0
20260507081547 41 257 0.9 9.6 0.00 1.16 0.02 90 1003.1
20260507081038 42 240 1.7 10.4 0.00 1.16 0.02 89 1003.1
20260507080538 42 218 5.2 11.3 0.00 1.16 0.02 89 1003.1
20260507080111 42 233 6.1 11.3 0.00 1.16 0.02 89 1003.1
20260507075538 42 241 4.3 8.7 0.00 1.16 0.02 90 1002.9
20260507075038 42 259 4.3 7.8 0.00 1.16 0.02 89 1003.0
20260507074547 42 266 3.5 10.4 0.00 1.16 0.02 89 1002.8
20260507074038 42 257 5.2 10.4 0.00 1.16 0.02 89 1002.8
20260507073538 42 245 5.2 10.4 0.00 1.16 0.02 89 1002.6
20260507073046 42 264 5.2 9.6 0.00 1.16 0.02 90 1002.6
20260507072539 42 239 4.3 8.7 0.00 1.16 0.02 90 1002.7
20260507072039 42 231 3.5 7.8 0.00 1.16 0.02 90 1002.8
20260507071607 42 228 2.6 6.1 0.00 1.16 0.02 91 1002.8
20260507071039 42 220 0.9 5.2 0.00 1.16 0.02 91 1002.8
20260507070539 42 228 1.7 5.2 0.00 1.16 0.02 91 1002.5
20260507070049 42 224 1.7 4.3 0.00 1.16 0.02 91 1002.6
20260507065538 43 223 0.9 3.5 0.00 1.16 0.02 90 1002.4
20260507065038 43 248 0.9 4.3 0.00 1.16 0.02 89 1002.3
20260507064549 42 280 1.7 5.2 0.00 1.16 0.02 91 1002.3
20260507064038 42 261 1.7 5.2 0.00 1.16 0.02 91 1002.3
20260507063538 43 214 1.7 7.0 0.00 1.16 0.02 90 1002.4
20260507063047 43 260 1.7 8.7 0.00 1.16 0.02 91 1002.5
20260507062538 43 245 2.6 8.7 0.00 1.16 0.02 91 1002.3
20260507062038 43 272 5.2 9.6 0.00 1.16 0.02 90 1002.3
20260507061555 43 259 4.3 9.6 0.00 1.16 0.02 91 1002.4
20260507061038 43 236 5.2 9.6 0.00 1.16 0.02 91 1002.6
20260507060538 43 233 3.5 7.0 0.00 1.16 0.02 91 1002.3
20260507060050 43 239 3.5 6.1 0.00 1.16 0.02 92 1002.2
20260507055542 43 255 2.6 5.2 0.00 1.16 0.02 94 1002.2
20260507055039 43 248 2.6 5.2 0.00 1.16 0.02 93 1002.2
20260507054547 44 243 3.5 5.2 0.00 1.16 0.02 93 1001.8
20260507054038 44 224 2.6 7.8 0.00 1.16 0.02 93 1001.8
20260507053542 44 235 3.5 7.8 0.01 1.16 0.02 94 1002.0
20260507053115 44 262 2.6 7.0 0.01 1.16 0.02 94 1002.2
20260507052538 44 207 1.7 7.0 0.01 1.16 0.02 94 1002.1
20260507052038 44 278 2.6 10.4 0.01 1.16 0.02 94 1002.2
20260507051557 44 250 5.2 10.4 0.01 1.16 0.02 94 1002.2
20260507051038 44 259 3.5 9.6 0.01 1.16 0.02 93 1002.0
20260507050538 44 233 4.3 9.6 0.01 1.16 0.02 93 1002.0
20260507050048 44 252 3.5 7.8 0.02 1.16 0.02 94 1002.2
20260507045544 44 232 3.5 6.1 0.02 1.17 0.02 94 1002.1
20260507045039 44 241 1.7 4.3 0.03 1.17 0.02 94 1002.0
20260507044549 45 259 0.9 3.5 0.04 1.17 0.02 95 1001.9
20260507044038 45 229 0.9 3.5 0.06 1.17 0.02 94 1002.1
20260507043539 45 255 0.0 2.6 0.06 1.16 0.01 94 1002.1
20260507043050 45 269 0.9 4.3 0.06 1.16 0.01 95 1002.1
20260507042539 45 266 0.0 6.1 0.07 1.16 0.01 95 1002.1
20260507042038 45 236 0.9 8.7 0.08 1.16 0.01 95 1002.4
20260507041547 45 245 2.6 8.7 0.09 1.16 0.01 96 1002.5
20260507041035 45 240 4.3 8.7 0.10 1.16 0.01 97 1002.6
20260507040539 45 231 1.7 5.2 0.12 1.16 0.01 97 1002.5
20260507040049 45 261 0.9 6.1 0.13 1.16 0.00 97 1002.5
20260507035538 46 232 1.7 6.1 0.14 1.16 1.16 96 1002.4
20260507035038 46 253 4.3 7.0 0.14 1.15 1.15 97 1002.5
20260507034549 46 241 1.7 7.0 0.13 1.14 1.14 97 1002.7
20260507034038 46 234 4.3 7.8 0.12 1.12 1.12 97 1002.5
20260507033538 46 258 3.5 7.8 0.12 1.11 1.11 98 1002.3
20260507033051 47 287 4.3 8.7 0.13 1.11 1.11 97 1002.2
20260507032539 47 270 4.3 8.7 0.13 1.10 1.10 98 1002.1
20260507032038 47 278 4.3 9.6 0.13 1.09 1.09 98 1001.9
20260507031549 47 222 4.3 9.6 0.14 1.08 1.08 99 1001.9
20260507031043 47 226 4.3 12.2 0.13 1.05 1.05 99 1001.9
20260507030540 47 241 4.3 12.2 0.15 1.04 1.04 99 1001.8
20260507030049 47 238 7.0 12.2 0.14 1.02 1.02 100 1002.1
20260507025540 48 219 4.3 7.8 0.15 1.02 1.02 100 1001.9
20260507025042 49 205 0.0 6.1 0.14 1.01 1.01 100 1001.7
20260507024559 49 0 0.0 1.7 0.14 1.01 1.01 100 1001.6
20260507024040 49 0 0.0 1.7 0.15 1.00 1.00 100 1001.7
20260507023540 49 0 0.0 0.9 0.15 0.99 0.99 100 1001.6
20260507023055 49 0 0.0 0.9 0.14 0.98 0.98 100 1001.6
20260507022539 49 0 0.0 1.7 0.14 0.97 0.97 100 1001.8
20260507022040 49 94 0.0 1.7 0.13 0.96 0.96 100 1001.9
20260507021549 49 0 0.0 0.9 0.11 0.94 0.94 100 1002.0
20260507021041 49 0 0.0 0.9 0.10 0.92 0.92 100 1002.1
20260507020541 49 0 0.0 0.0 0.08 0.90 0.90 100 1001.9
20260507020047 49 0 0.0 0.0 0.06 0.88 0.88 100 1001.8
20260507015536 49 0 0.0 1.7 0.05 0.87 0.87 100 1001.6
20260507015041 49 0 0.0 1.7 0.05 0.87 0.87 100 1001.5
20260507014603 49 34 0.0 1.7 0.05 0.86 0.86 100 1001.6
20260507014041 49 91 0.0 0.9 0.05 0.85 0.85 100 1001.6
20260507013540 49 334 0.0 1.7 0.04 0.84 0.84 100 1001.8
20260507013051 50 19 0.0 2.6 0.05 0.84 0.84 100 1001.8
20260507012540 50 0 0.0 3.5 0.04 0.83 0.83 100 1001.8
20260507012040 50 17 0.0 3.5 0.05 0.83 0.83 100 1001.9
20260507011551 50 20 0.0 1.7 0.06 0.83 0.83 100 1001.8
20260507011042 51 0 0.0 3.5 0.06 0.82 0.82 100 1001.9
20260507010540 51 0 0.0 4.3 0.06 0.82 0.82 100 1001.9
20260507005540 52 19 1.7 3.5 0.13 0.82 0.82 100 1001.6